Location: The Saddle
(36.8333°N, 80.3417°W)
Time: 10:30:32
(UTC-05:00)

Explorer 7 - All Passes

Search period start: 02 December 2023 00:00
Search period end: 12 December 2023 00:00
Orbit: 472 x 640 km, 50.3° (Epoch: 02 December)

Date Brightness Start Highest point End Pass type
(mag) Time Alt. Az. Time Alt. Az. Time Alt. Az.
02 Dec - 00:57:45 10° W 01:00:03 15° SW 01:02:24 10° SSW night (unlit)
02 Dec - 14:52:49 10° SSE 14:54:30 13° SE 14:56:09 10° ESE daylight
02 Dec - 16:30:17 10° WSW 16:33:59 70° NW 16:37:39 10° NE daylight
02 Dec - 18:12:04 10° WNW 18:14:25 16° NNW 18:16:46 10° NNE visible
02 Dec - 19:54:52 10° N 19:55:37 10° N 19:56:22 10° NNE visible
02 Dec - 21:33:48 10° NNW 21:36:42 20° NNE 21:39:42 10° ENE night (unlit)
02 Dec - 23:13:05 10° NW 23:16:58 78° SW 23:21:02 10° SE night (unlit)
03 Dec - 14:48:06 10° S 14:50:50 19° SE 14:53:32 10° E daylight
03 Dec - 16:26:53 10° WSW 16:30:29 47° NW 16:34:03 10° NE daylight
03 Dec - 18:09:11 10° NW 18:11:05 13° NNW 18:13:00 10° NNE visible
03 Dec - 19:51:18 10° N 19:52:21 11° N 19:53:24 10° NNE visible
03 Dec - 21:30:06 10° NNW 21:33:18 25° NNE 21:36:37 10° E night (unlit)
03 Dec - 23:09:36 10° WNW 23:13:22 52° SW 23:17:19 10° SSE night (unlit)
04 Dec - 14:43:50 10° SSW 14:47:08 29° SE 14:50:22 10° ENE daylight
04 Dec - 16:23:33 10° W 16:26:57 34° NNW 16:30:21 10° NE daylight
04 Dec - 18:06:17 10° NW 18:07:44 12° N 18:09:12 10° NNE visible
04 Dec - 19:47:33 10° NNW 19:49:01 12° N 19:50:29 10° NE visible
04 Dec - 21:26:22 10° NW 21:29:49 33° NNE 21:33:23 10° E night (unlit)
04 Dec - 23:06:11 10° WNW 23:09:42 34° SW 23:13:23 10° SSE night (unlit)
05 Dec - 14:39:49 10° SSW 14:43:26 44° SE 14:46:58 10° ENE daylight
05 Dec - 16:20:16 10° W 16:23:25 26° NNW 16:26:33 10° NNE daylight
05 Dec - 18:03:22 10° NNW 18:04:21 11° N 18:05:20 10° N visible
05 Dec - 19:43:42 10° NNW 19:45:36 13° NNE 19:47:31 10° NE visible
05 Dec - 21:22:35 10° NW 21:26:14 44° NNE 21:30:00 10° ESE night (unlit)
05 Dec - 23:02:52 10° W 23:05:58 23° SW 23:09:10 10° S night (unlit)
06 Dec - 14:35:56 10° SW 14:39:42 69° SE 14:43:22 10° NE daylight
06 Dec - 16:17:02 10° WNW 16:19:52 20° NNW 16:22:42 10° NNE daylight
06 Dec - 18:00:23 10° N 18:00:56 10° N 18:01:27 10° N visible
06 Dec - 19:39:48 10° NNW 19:42:07 16° NNE 19:44:27 10° ENE visible
06 Dec - 21:18:49 10° NW 21:22:34 64° NE 21:26:27 10° ESE night (unlit)
06 Dec - 22:59:48 10° W 23:02:08 15° SW 23:04:32 10° SSW night (unlit)
07 Dec - 12:55:04 10° SSE 12:56:29 12° SE 12:57:52 10° ESE daylight
07 Dec - 14:32:09 10° SW 14:35:56 78° NW 14:39:39 10° NE daylight
07 Dec - 16:13:50 10° WNW 16:16:18 17° NNW 16:18:45 10° NNE daylight
07 Dec - 17:57:04 10° N 17:57:27 10° N 17:57:49 10° N visible
07 Dec - 19:35:51 10° NNW 19:38:33 19° NNE 19:41:17 10° ENE visible
07 Dec - 21:15:03 10° NW 21:18:49 87° SW 21:22:44 10° SE night (unlit)
08 Dec - 12:49:54 10° S 12:52:33 18° SE 12:55:10 10° E daylight
08 Dec - 14:28:26 10° WSW 14:32:10 53° NW 14:35:48 10° NE daylight
08 Dec - 16:10:39 10° NW 16:12:42 14° NNW 16:14:45 10° NNE daylight
08 Dec - 17:53:11 10° N 17:53:54 10° N 17:54:38 10° NNE visible
08 Dec - 19:31:52 10° NNW 19:34:54 23° NNE 19:37:58 10° E visible
08 Dec - 21:11:18 10° WNW 21:14:59 57° SW 21:18:48 10° SE night (unlit)
09 Dec - 12:45:18 10° SSW 12:48:36 26° SE 12:51:49 10° ENE daylight
09 Dec - 14:24:48 10° WSW 14:28:23 38° NNW 14:31:52 10° NE daylight
09 Dec - 16:07:28 10° NW 16:09:05 12° NNW 16:10:41 10° NNE daylight
09 Dec - 17:49:08 10° N 17:50:19 11° N 17:51:32 10° NNE visible
09 Dec - 19:27:52 10° NNW 19:31:09 29° NNE 19:34:31 10° E visible
09 Dec - 21:07:34 10° WNW 21:11:04 37° SW 21:14:40 10° SSE night (unlit)
10 Dec - 12:40:57 10° SSW 12:44:38 40° SE 12:48:11 10° ENE daylight
10 Dec - 14:21:14 10° W 14:24:34 28° NNW 14:27:50 10° NNE daylight
10 Dec - 16:04:16 10° NNW 16:05:25 11° N 16:06:33 10° N daylight
10 Dec - 17:45:00 10° NNW 17:46:39 12° NNE 17:48:19 10° NE visible
10 Dec - 19:23:50 10° NW 19:27:19 39° NNE 19:30:54 10° ESE visible
10 Dec - 21:03:57 10° WNW 21:07:04 25° SW 21:10:16 10° S night (unlit)
11 Dec - 12:36:45 10° SW 12:40:38 61° SE 12:44:21 10° ENE daylight
11 Dec - 14:17:41 10° WNW 14:20:44 22° NNW 14:23:44 10° NNE daylight
11 Dec - 16:01:01 10° NNW 16:01:43 10° N 16:02:25 10° N daylight
11 Dec - 17:40:50 10° NNW 17:42:55 14° NNE 17:45:01 10° NE visible
11 Dec - 19:19:46 10° NW 19:23:24 56° NE 19:27:08 10° ESE visible
11 Dec - 21:00:32 10° W 21:02:59 17° SW 21:05:30 10° S night (unlit)
